sat.trackr.live / text

‹ back to catalog

STARLINK-31872

NORAD 59922 · 2024-106A

PAYLOAD ACTIVE UNKNOWN

§ Identity

Operator
Country
US
Launch date
2024-06-01
Launch site
AFETR
Launch vehicle
Mass (kg)
RCS (m²)

Purposes: comms

External: N2YO · Heavens-Above · Gunter

§ Orbital elements

Epoch: 2026-05-25T00:38:30.441408Z

Period
94.27 min
Inclination
42.9992°
Eccentricity
0.0000796
Mean motion
15.27574763 rev/d
Perigee alt
482.5 km
Apogee alt
483.6 km
Semi-major
6,861.2 km
B*
7.2798e-6
RAAN
261.7504°
Arg perigee
287.3562°
Mean anomaly
72.7202°
Rev number
11,223

§ Raw data

STARLINK-318721 59922U 24106A   26145.02674122 -.00000062  00000+0  72798-5 0  99982 59922  42.9992 261.7504 0000796 287.3562  72.7202 15.27574763112230

JSON: /api/v1/satellites/59922 · /tle

For live sub-satellite position, see the globe view (requires WebGL).

§ Visibility from observer

Set your observer location to see the next 7 days of passes ≥ 10°. The values pass through the URL so the page stays shareable.

No JS? Fill the form by hand. The geolocation button needs JavaScript.